When you browse on this site, cookies collect data to enhance your experience and personalize the content and advertising you see.
Visit our Privacy Policy to learn more. By continuing to use the site, you agree to this use of cookies and data.
  • In Hungary
  • List of Countries
  • For 7 days
  • Water Temperature
  • Satellite Maps
  • Weather Map
  • News
  • Weather Widgets
  • user-avatar
    Login

    Hourly Weather Worgl

    Today, 20 March, Wednesday

    Time Temperature Precipitation Wind Pressure Humidity
    00:00 -1°C° 0 mm 1 mps 724 mmHg 91%
    01:00 -1°C° 0 mm 1 mps 724 mmHg 90%
    02:00 -1°C° 0 mm 1 mps 724 mmHg 90%
    03:00 -1°C° 0 mm 1 mps 725 mmHg 89%
    04:00 -2°C° 0 mm 1 mps 725 mmHg 88%
    05:00 -2°C° 0 mm 1 mps 725 mmHg 86%
    06:00 -2°C° 0 mm 1 mps 725 mmHg 84%
    07:00 -2°C° 0 mm 1 mps 726 mmHg 83%
    08:00 +1°C° 0 mm 1 mps 726 mmHg 76%
    09:00 +3°C° 0 mm 1 mps 725 mmHg 69%
    10:00 +6°C° 0 mm 1 mps 725 mmHg 62%
    11:00 +7°C° 0 mm 1 mps 725 mmHg 62%
    12:00 +8°C° 0 mm 1 mps 725 mmHg 62%
    13:00 +8°C° 0 mm 1 mps 725 mmHg 62%
    14:00 +8°C° 0 mm 1 mps 725 mmHg 63%
    15:00 +8°C° 0 mm 1 mps 725 mmHg 65%
    16:00 +8°C° 0 mm 1 mps 725 mmHg 66%
    17:00 +6°C° 0 mm 1 mps 725 mmHg 73%
    18:00 +4°C° 0 mm 1 mps 725 mmHg 79%
    19:00 +2°C° 0 mm 1 mps 725 mmHg 86%
    20:00 +1°C° 0 mm 1 mps 726 mmHg 86%
    21:00 +1°C° 0 mm 1 mps 726 mmHg 85%
    22:00 +1°C° 0 mm 1 mps 727 mmHg 85%
    23:00 0°C° 0 mm 1 mps 727 mmHg 83%

    Tomorrow, 21 March, Thursday

    Time Temperature Precipitation Wind Pressure Humidity
    00:00 -2°C° 0 mm 2 mps 727 mmHg 81%
    01:00 -2°C° 0 mm 2 mps 727 mmHg 78%
    02:00 -2°C° 0 mm 2 mps 727 mmHg 76%
    03:00 -2°C° 0 mm 2 mps 726 mmHg 74%
    04:00 -2°C° 0 mm 2 mps 726 mmHg 72%
    05:00 -1°C° 0 mm 2 mps 726 mmHg 70%
    06:00 -1°C° 0 mm 2 mps 726 mmHg 68%
    07:00 -1°C° 0 mm 2 mps 726 mmHg 66%
    08:00 +5°C° 0 mm 1 mps 726 mmHg 63%
    09:00 +8°C° 0 mm 1 mps 726 mmHg 61%
    10:00 +11°C° 0 mm 1 mps 726 mmHg 58%
    11:00 +12°C° 0 mm 1 mps 725 mmHg 58%
    12:00 +13°C° 0 mm 1 mps 725 mmHg 58%
    13:00 +14°C° 0 mm 1 mps 725 mmHg 57%
    14:00 +14°C° 0 mm 1 mps 724 mmHg 61%
    15:00 +14°C° 0 mm 1 mps 724 mmHg 66%
    16:00 +13°C° 0 mm 1 mps 724 mmHg 70%
    17:00 +11°C° 0 mm 1 mps 724 mmHg 75%
    18:00 +9°C° 0 mm 1 mps 724 mmHg 80%
    19:00 +6°C° 0 mm 1 mps 724 mmHg 86%
    20:00 +6°C° 0 mm 1 mps 724 mmHg 83%
    21:00 +5°C° 0 mm 1 mps 725 mmHg 81%
    22:00 +4°C° 0 mm 2 mps 725 mmHg 78%
    23:00 +4°C° 0 mm 2 mps 725 mmHg 76%

    Day after tomorrow, 22 March, Friday

    Time Temperature Precipitation Wind Pressure Humidity
    00:00 +4°C° 0 mm 2 mps 725 mmHg 73%
    01:00 +3°C° 0 mm 2 mps 725 mmHg 70%
    02:00 +3°C° 0 mm 2 mps 725 mmHg 68%
    03:00 +3°C° 0 mm 2 mps 724 mmHg 66%
    04:00 +3°C° 0 mm 2 mps 724 mmHg 64%
    05:00 +3°C° 0 mm 2 mps 724 mmHg 63%
    06:00 +4°C° 0 mm 2 mps 724 mmHg 61%
    07:00 +4°C° 0 mm 2 mps 724 mmHg 60%
    08:00 +8°C° 0 mm 1 mps 724 mmHg 59%
    09:00 +11°C° 0 mm 1 mps 724 mmHg 58%
    10:00 +13°C° 0 mm 0 mps 724 mmHg 57%
    11:00 +14°C° 0 mm 0 mps 724 mmHg 56%
    12:00 +16°C° 0 mm 0 mps 723 mmHg 55%
    13:00 +19°C° 0 mm 1 mps 723 mmHg 54%
    14:00 +18°C° 0 mm 1 mps 723 mmHg 59%
    15:00 +18°C° 0 mm 1 mps 722 mmHg 64%
    16:00 +16°C° 0 mm 1 mps 722 mmHg 69%
    17:00 +14°C° 0 mm 1 mps 722 mmHg 74%
    18:00 +11°C° 0 mm 1 mps 722 mmHg 79%
    19:00 +9°C° 0 mm 1 mps 722 mmHg 84%
    20:00 +8°C° 0 mm 1 mps 722 mmHg 82%
    21:00 +7°C° 0 mm 2 mps 723 mmHg 80%
    22:00 +6°C° 0 mm 2 mps 723 mmHg 78%
    23:00 +6°C° 0 mm 2 mps 723 mmHg 76%

    23 March, Saturday

    Time Temperature Precipitation Wind Pressure Humidity
    00:00 +6°C° 0 mm 2 mps 723 mmHg 74%
    01:00 +6°C° 0 mm 2 mps 723 mmHg 72%
    02:00 +6°C° 0 mm 2 mps 723 mmHg 72%
    03:00 +5°C° 0 mm 2 mps 723 mmHg 72%
    04:00 +5°C° 0 mm 2 mps 723 mmHg 71%
    05:00 +5°C° 0 mm 2 mps 723 mmHg 71%
    06:00 +6°C° 0 mm 2 mps 723 mmHg 71%
    07:00 +7°C° 0 mm 1 mps 723 mmHg 72%
    08:00 +10°C° 0 mm 1 mps 723 mmHg 68%
    09:00 +12°C° 0 mm 0 mps 723 mmHg 64%
    10:00 +14°C° 0 mm 0 mps 723 mmHg 61%
    11:00 +15°C° 0 mm 0 mps 723 mmHg 59%
    12:00 +18°C° 0 mm 1 mps 722 mmHg 58%
    13:00 +18°C° 0 mm 1 mps 722 mmHg 56%
    14:00 +18°C° 0 mm 1 mps 722 mmHg 59%
    15:00 +18°C° 0 mm 1 mps 721 mmHg 62%
    16:00 +16°C° 0 mm 1 mps 721 mmHg 65%
    17:00 +14°C° 0 mm 1 mps 721 mmHg 73%
    18:00 +12°C° 0 mm 1 mps 721 mmHg 81%
    19:00 +8°C° 0 mm 0 mps 721 mmHg 89%
    20:00 +9°C° 0 mm 1 mps 721 mmHg 89%
    21:00 +9°C° 0 mm 1 mps 722 mmHg 89%
    22:00 +8°C° 0 mm 1 mps 722 mmHg 89%
    23:00 +8°C° 0 mm 1 mps 722 mmHg 87%

    24 March, Sunday

    Time Temperature Precipitation Wind Pressure Humidity
    00:00 +8°C° 0 mm 1 mps 722 mmHg 86%
    01:00 +7°C° 0 mm 2 mps 721 mmHg 85%
    02:00 +7°C° 0 mm 2 mps 721 mmHg 84%
    03:00 +7°C° 0 mm 1 mps 721 mmHg 82%
    04:00 +7°C° 0 mm 1 mps 721 mmHg 81%
    05:00 +7°C° 0 mm 1 mps 721 mmHg 80%
    06:00 +8°C° 0 mm 1 mps 721 mmHg 78%
    07:00 +8°C° 0 mm 1 mps 721 mmHg 76%
    08:00 +11°C° 0 mm 1 mps 721 mmHg 70%
    09:00 +13°C° 0 mm 1 mps 721 mmHg 63%
    10:00 +16°C° 0 mm 1 mps 721 mmHg 57%
    11:00 +18°C° 0 mm 1 mps 720 mmHg 57%
    12:00 +18°C° 0 mm 1 mps 720 mmHg 56%
    13:00 +19°C° 0 mm 1 mps 720 mmHg 56%
    14:00 +18°C° 0 mm 1 mps 719 mmHg 59%
    15:00 +18°C° 0 mm 1 mps 719 mmHg 63%
    16:00 +18°C° 0 mm 1 mps 718 mmHg 66%
    17:00 +15°C° 0 mm 1 mps 719 mmHg 76%
    18:00 +12°C° 0 mm 1 mps 719 mmHg 85%
    19:00 +9°C° 0 mm 0 mps 719 mmHg 94%
    20:00 +9°C° 0.1 mm 0 mps 719 mmHg 95%
    21:00 +9°C° 0.1 mm 0 mps 719 mmHg 95%
    22:00 +9°C° 0.1 mm 0 mps 720 mmHg 95%
    23:00 +10°C° 0 mm 1 mps 720 mmHg 95%

    25 March, Monday

    Time Temperature Precipitation Wind Pressure Humidity
    00:00 +9°C° 0 mm 1 mps 719 mmHg 95%
    01:00 +9°C° 0 mm 1 mps 719 mmHg 96%
    02:00 +9°C° 0 mm 1 mps 719 mmHg 95%
    03:00 +8°C° 0 mm 1 mps 719 mmHg 95%
    04:00 +8°C° 0 mm 1 mps 719 mmHg 94%
    05:00 +8°C° 0 mm 1 mps 719 mmHg 94%
    06:00 +9°C° 0 mm 1 mps 719 mmHg 93%
    07:00 +9°C° 0 mm 1 mps 719 mmHg 93%
    08:00 +10°C° 0.1 mm 1 mps 719 mmHg 89%
    09:00 +11°C° 0.1 mm 1 mps 719 mmHg 85%
    10:00 +12°C° 0.1 mm 1 mps 718 mmHg 81%
    11:00 +12°C° 0.1 mm 1 mps 718 mmHg 80%
    12:00 +12°C° 0.1 mm 1 mps 718 mmHg 80%
    13:00 +12°C° 0.1 mm 2 mps 717 mmHg 80%
    14:00 +12°C° 0.2 mm 2 mps 717 mmHg 82%
    15:00 +10°C° 0.2 mm 2 mps 716 mmHg 84%
    16:00 +11°C° 0.2 mm 1 mps 716 mmHg 86%
    17:00 +10°C° 0.3 mm 1 mps 716 mmHg 88%
    18:00 +9°C° 0.3 mm 1 mps 716 mmHg 90%
    19:00 +8°C° 0.3 mm 1 mps 716 mmHg 93%
    20:00 +8°C° 0.3 mm 1 mps 717 mmHg 93%
    21:00 +7°C° 0.3 mm 1 mps 717 mmHg 93%
    22:00 +7°C° 0.3 mm 1 mps 717 mmHg 93%
    23:00 +6°C° 0.4 mm 1 mps 717 mmHg 93%
    Show more